Dewpoint
26 19 19 15 20 21 21 20 21 22 24 22 19 18 16 15 17 19 20 20 22 19 16 16 16 16 16 17 17 16 15 14 13 13 13 13 12 12 12 12 13 13 12 17 17 17 17 17 16 16 15 13 14 13 15 15 15 15 12 16 8 7 9 11 8 10 9 8 9 9 6 4 0 7 12 7 13 17 15 12 12 12 13 11 10 13
23 16 19 20 20 19 20 23 21 18 20 16 16 14 13 17 14 17 20 21 24 19 16 17 17 17 17 18 17 17 15 14 13 13 13 13 13 13 13 13 14 13 17 18 17 17 18 17 16 16 15 20 11 13 13 13 13 14 15 12 10 9 8 8 9 11 9 11 9 5 4 4 3 3 5 6 9 13 16 13 10 11 11 11 11 13
18 19 20 20 21 20 22 21 17 16 16 17 13 13 11 13 18 19 21 23 22 19 17 17 16 16 17 18 19 17 15 16 15 14 14 13 13 13 13 14 14 14 15 15 15 15 15 17 17 15 15 14 12 12 14 13 14 14 14 14 16 13 11 10 13 11 9 8 10 4 5 3 5 6 7 8 17 16 10 10 9 12 8 9 10 12
15 19 19 21 20 18 19 20 21 19 16 11 11 13 8 14 11 5 18 22 19 19 16 17 16 16 17 18 19 19 18 17 16 15 15 15 13 13 13 14 14 14 15 14 14 13 14 14 15 16 15 14 14 15 12 12 13 13 19 13 14 15 14 12 15 13 12 13 12 13 10 8 5 3 13 12 10 10 8 7 6 7 5 9 8 11
17 18 19 23 21 17 17 18 17 16 14 19 15 12 10 13 13 13 14 21 20 19 19 17 15 15 17 17 18 19 20 20 18 19 17 15 15 15 15 14 15 14 14 14 14 13 14 14 14 15 15 14 14 13 12 11 12 12 14 15 14 14 14 14 19 13 10 12 11 11 9 11 10 9 8 4 4 8 7 12 5 -2 7 6 7 12
13 17 22 21 18 17 15 15 18 15 8 15 16 12 10 13 15 17 19 19 15 15 18 17 2 -1 13 16 17 18 19 18 18 17 16 15 15 15 14 13 14 16 15 14 14 13 14 14 14 15 16 15 14 13 14 13 12 13 15 15 14 14 14 15 13 13 11 13 10 5 1 -3 -3 -3 -1 -3 -1 5 2 -1 3 3 3 3 5 7
16 18 20 20 17 14 15 16 18 16 10 3 1 15 14 14 16 18 19 15 9 4 13 18 3 -0 9 16 16 17 18 19 19 18 17 16 15 15 15 14 13 13 14 14 14 13 13 14 15 15 16 16 15 14 14 14 14 14 14 14 14 13 13 14 14 13 14 7 2 -1 -1 -0 -2 -4 -3 -2 2 5 1 6 -9 -1 -1 0 -0 1
20 15 15 14 13 13 11 9 13 16 12 1 8 16 17 16 15 17 19 13 10 18 16 13 3 -3 -2 -7 12 17 18 18 19 19 19 18 17 15 15 14 14 13 13 14 14 13 14 14 14 15 16 17 17 17 16 15 15 15 15 15 14 14 17 14 13 11 10 3 2 4 2 5 -0 -2 -3 -4 -4 1 10 -5 -2 -8 -8 0 -4 -2
16 16 16 11 12 9 8 9 14 19 13 10 14 18 15 17 16 19 17 17 18 12 9 6 13 -8 -6 2 17 17 16 16 17 18 19 19 18 17 16 16 15 14 14 14 14 14 14 14 15 16 17 18 19 18 17 17 16 16 15 16 15 14 13 14 11 8 5 10 4 2 1 -2 3 2 1 4 7 4 3 -7 -9 -10 -12 -6 -6 -9
18 16 17 14 11 6 13 15 15 19 8 14 17 19 20 20 20 20 16 15 10 2 -3 1 4 -8 -4 -1 15 16 16 15 16 17 17 19 19 19 18 17 17 16 16 15 15 15 15 16 16 17 18 19 19 19 19 18 17 17 16 16 15 14 13 12 10 10 4 2 10 4 0 -3 -5 -2 -3 -6 -9 -7 -3 -4 -7 -12 -14 -12 -9 -9
17 28 22 16 11 11 15 16 17 19 15 18 15 13 12 5 14 16 15 10 0 -17 -0 2 5 -5 -7 -2 12 14 13 16 16 17 18 19 20 20 20 19 19 18 17 17 17 17 17 18 18 19 19 19 19 18 18 18 17 17 17 16 15 14 13 12 9 6 5 1 -1 -1 -3 -5 -7 -8 -9 -10 -10 -9 -6 -5 -6 -11 -15 -13 -13 -10
19 21 19 19 22 19 13 9 17 20 17 12 7 4 1 -8 -0 7 5 2 -15 -15 -4 -1 6 2 -9 -2 1 15 15 15 16 15 15 18 19 20 20 20 20 19 19 19 18 18 18 19 19 19 19 19 19 18 17 17 17 17 16 16 16 15 14 11 10 5 3 1 -2 -4 -6 -7 -8 -9 -10 -11 -12 -10 -8 -7 -7 -10 -15 -14 -12 -12
13 11 18 20 26 16 12 6 6 12 10 8 5 0 -4 -27 -13 -28 -9 -16 -16 -16 -5 1 3 -4 0 -3 -1 6 14 17 18 17 15 15 18 20 20 21 21 21 21 21 21 21 20 20 20 19 19 19 19 18 18 17 17 17 16 15 15 15 14 12 8 5 3 1 -1 -4 -6 -7 -7 -9 -10 -11 -11 -10 -10 -9 -8 -10 -13 -14 -14 -13
12 15 14 18 11 18 4 -9 -1 -5 2 7 4 -1 -10 -18 -21 -26 -14 -13 -15 -5 -2 3 4 -1 0 -0 4 5 6 12 17 19 19 17 16 18 20 21 21 22 22 22 22 22 22 22 22 21 21 20 20 19 19 18 19 17 16 16 15 14 14 12 8 5 2 0 -1 -2 -5 -7 -5 -6 -10 -10 -10 -11 -11 -9 -8 -9 -11 -12 -13 -13
-8 -10 -14 9 -7 13 15 4 5 -1 8 8 12 -4 -12 -11 -22 -22 -18 -25 -22 -8 -4 3 -7 -6 -10 5 8 10 12 18 19 20 20 20 20 20 20 20 20 20 21 23 22 23 23 23 23 23 22 21 20 20 20 19 19 18 17 16 15 14 13 10 8 4 2 0 -1 -2 -5 -7 -9 -9 -7 -9 -9 -11 -11 -9 -8 -9 -10 -12 -13 -13
-3 -15 -6 14 10 15 12 16 18 16 6 7 10 3 -4 -10 2 -9 -11 -12 -11 -4 1 -5 -4 1 -1 4 14 17 19 18 19 19 20 20 21 19 21 21 22 22 22 22 22 23 23 23 23 23 23 22 22 21 20 20 20 19 18 17 16 15 14 10 8 4 2 -0 -1 -2 -4 -7 -7 -5 -8 -3 -2 -5 -8 -8 -8 -9 -11 -12 -12 -12
10 7 14 20 20 11 11 18 18 3 -15 -15 -10 -14 -8 4 8 1 4 7 5 -6 1 -8 -1 1 -1 -6 3 15 16 16 16 18 18 19 19 17 20 21 22 22 23 23 23 23 23 23 23 23 23 23 22 22 21 21 20 20 19 18 16 15 13 11 7 4 2 -0 -2 -2 -4 -6 -7 -7 -7 -9 -8 -6 -7 -9 -10 -9 -9 -11 -12 -13
-3 0 14 16 6 19 15 19 20 16 5 1 -10 -5 12 16 13 4 -5 -9 -15 -9 -6 -8 -8 -5 -6 -9 8 7 8 13 13 15 17 17 18 18 20 21 22 22 22 23 23 24 24 24 24 24 24 23 23 22 22 22 21 21 20 19 17 15 13 11 7 4 1 -1 -1 -3 -4 -6 -7 -8 -8 -8 -8 -10 -11 -12 -10 -8 -9 -10 -10 -11
12 -1 5 16 12 16 21 16 12 17 14 1 -12 1 -0 -15 -14 -3 -10 -13 -16 -18 -13 -6 -4 -3 -3 1 4 2 3 6 6 5 10 13 15 17 18 19 21 21 22 22 22 23 23 24 24 24 24 24 24 24 24 23 23 22 21 19 18 16 14 12 8 4 2 -2 -2 -3 -4 -6 -8 -10 -10 -10 -10 -11 -11 -12 -12 -11 -11 -11 -11 -6
12 -4 3 8 9 13 18 11 4 7 12 16 14 8 9 -3 -9 -11 -8 -8 -9 -9 -10 -7 -11 -11 -1 5 6 -1 -0 2 6 7 9 11 13 15 17 18 20 20 21 21 22 22 22 22 23 23 23 24 24 24 25 25 24 23 22 20 19 17 15 12 8 5 2 -1 -4 -5 -6 -7 -8 -8 -10 -11 -11 -12 -12 -12 -12 -12 -12 -11 -7 -10
4 5 -8 -1 12 11 5 9 4 2 -2 3 2 2 3 -3 4 4 -3 -3 -4 -13 -14 -11 -6 -2 3 8 3 4 5 7 7 10 11 14 16 17 17 18 19 20 20 20 20 20 21 21 22 22 23 24 24 25 25 25 25 24 23 21 20 18 15 12 9 5 2 -0 -4 -6 -9 -9 -9 -10 -9 -11 -11 -11 -12 -12 -9 -12 -12 -10 -11 -10
-1 3 -0 6 -3 3 5 12 5 2 1 3 4 -1 6 -4 -6 -11 -4 -5 -1 -5 -7 -9 -9 -5 3 7 1 2 10 7 11 10 13 15 16 17 18 17 17 18 17 18 18 19 20 21 22 22 23 23 24 24 25 25 25 24 23 22 21 18 15 13 9 6 2 -1 -8 -10 -11 -11 -10 -10 -10 -10 -11 -10 -11 -12 -10 -12 -9 -11 -11 -11
8 7 6 -3 -0 -7 2 11 17 10 4 7 1 4 6 1 -3 -11 -12 -6 -5 0 -7 -6 -5 0 4 6 4 5 5 7 11 11 13 14 14 14 15 16 16 16 16 16 16 17 18 19 20 21 22 21 21 22 22 24 25 24 24 22 20 18 15 13 11 7 3 -2 -6 -9 -10 -10 -10 -10 -9 -8 -9 -8 -10 -12 -12 -9 -9 -10 -11 -10
24 1 -9 -2 2 -0 4 12 13 15 15 10 12 9 6 -1 3 3 -1 -9 -2 -4 -4 -9 -4 -1 -1 8 6 6 7 8 8 11 12 13 14 13 13 13 13 13 14 15 16 16 18 19 20 21 21 22 22 22 21 21 22 23 23 22 21 18 16 13 10 7 2 -2 -5 -8 -10 -11 -10 -9 -9 -9 -9 -10 -11 -12 -11 -7 -9 -10 -11 -11
-1 2 -4 -10 -8 -11 -5 0 8 8 12 11 6 11 8 6 4 -2 -2 -4 1 1 3 -6 -5 -5 -1 9 11 11 9 9 10 10 11 11 11 11 11 12 12 12 12 11 12 14 17 18 19 20 21 21 21 21 21 21 21 21 21 21 20 18 16 14 11 7 2 -1 -4 -6 -10 -10 -10 -10 -9 -9 -9 -10 -12 -12 -10 -9 -10 -11 -11 -11
-1 6 -6 -18 -28 -27 -22 -20 -13 -7 -4 8 12 12 11 7 4 4 1 -1 1 2 2 -6 -2 6 6 4 7 9 9 9 9 8 8 10 10 11 11 11 10 10 10 10 11 12 12 13 15 14 14 14 15 15 15 16 16 17 18 20 19 18 17 15 12 6 3 -0 -6 -8 -6 -5 -8 -9 -9 -9 -9 -10 -11 -10 -9 -10 -8 -11 -11 -11
2 12 2 -3 -8 -12 -9 -8 -8 11 3 -1 1 6 5 7 8 1 -0 -2 2 -1 1 3 3 3 4 5 7 7 8 7 7 8 9 11 12 13 12 10 9 10 11 12 13 13 12 12 11 11 11 11 12 13 14 15 15 16 16 16 17 17 16 14 11 9 3 -4 -5 0 -7 -7 -8 -7 -7 -5 -8 -9 -9 -10 -10 -11 -10 -8 -10 -10
3 3 9 8 -2 -8 -12 -12 -10 9 3 4 4 8 5 7 8 7 7 5 4 -4 -0 5 6 6 5 6 5 5 6 7 9 10 11 12 12 11 8 6 14 8 9 11 11 12 12 12 13 14 16 17 18 18 18 18 17 17 16 15 14 13 14 13 11 8 3 -2 2 -1 -7 -6 -5 -4 -4 -4 -6 -8 -9 -9 -11 -10 -9 -6 -9 -8
4 -3 -2 5 6 8 8 7 8 10 9 9 8 6 5 6 8 7 8 10 3 1 -1 -0 0 3 3 4 5 7 8 9 11 12 13 13 10 6 6 6 7 9 12 13 13 13 15 16 18 19 18 16 15 14 14 15 14 14 14 14 13 17 18 14 7 1 -1 -1 -4 -1 -2 -2 -1 3 -1 -3 -6 -7 -8 -8 -9 -8 -6 -5 -7 -5
1 -1 -4 2 5 9 10 11 11 9 7 5 6 6 6 6 7 9 9 9 10 8 7 6 6 6 7 8 8 10 12 13 13 13 10 3 4 6 6 9 11 13 13 14 15 17 18 19 17 14 13 13 13 12 12 12 12 12 12 11 13 12 10 3 -0 -1 0 -0 3 3 4 6 5 4 -1 -3 -6 -7 -8 -8 -7 -5 -4 -6 -5 -4
2 0 11 6 1 4 6 6 4 5 5 5 6 6 6 5 6 8 9 8 9 9 10 10 9 10 11 12 12 13 13 11 7 2 2 4 5 8 11 12 13 14 15 17 18 18 15 13 13 12 11 10 11 12 12 12 11 11 11 12 13 12 4 2 2 3 6 5 5 6 7 6 5 3 -2 -4 -7 -7 -6 -7 -4 -4 -5 -6 -6 -6
-2 -0 -1 -3 -3 0 2 3 3 4 5 5 4 4 2 2 1 1 4 8 5 6 7 3 2 5 6 6 6 5 2 1 0 2 5 5 10 13 13 13 15 16 17 17 15 13 12 10 8 9 10 10 10 11 10 8 9 9 8 7 8 7 6 7 6 6 7 7 7 7 7 4 2 -1 -3 -5 -5 -5 -4 -4 -5 -6 -5 -6 -7 -5
3 0 -4 -4 -2 1 1 5 6 6 4 1 2 3 1 1 2 3 3 5 8 5 1 1 3 3 4 6 3 0 -1 0 4 5 5 12 14 14 15 15 16 17 16 13 11 10 10 9 7 7 9 9 10 11 10 9 8 7 6 6 7 7 7 8 8 8 8 8 7 5 3 1 -0 -1 -2 -4 -5 -4 -5 -6 -5 -6 -7 -8 -7 -7
4 1 -1 2 -3 0 4 5 6 1 -6 -7 -6 -1 2 -3 0 -1 -2 -2 -1 4 4 5 5 5 3 2 0 -0 1 4 6 6 12 15 16 16 15 15 16 14 13 12 10 10 8 7 7 8 9 10 10 9 9 9 8 7 8 7 8 8 9 8 8 7 6 5 3 1 1 -1 -1 -4 -4 -6 -6 -6 -6 -6 -6 -7 -7 -7 -6 -6
7 1 1 -1 1 4 1 4 -6 -16 -8 1 1 4 3 1 1 -0 0 1 1 1 2 3 2 2 2 2 2 3 5 7 8 8 16 16 16 14 14 14 13 11 11 10 9 8 7 7 7 8 10 10 9 8 9 8 8 9 9 9 9 9 8 7 6 5 4 2 1 -0 -2 -3 -4 -5 -6 -6 -7 -6 -7 -7 -7 -6 -6 -6 -5 -6
4 4 0 8 -2 -0 -2 -8 -16 -7 -8 -1 -2 4 7 5 4 2 1 3 3 3 3 3 3 3 3 3 4 6 9 11 11 14 17 15 13 12 12 10 9 10 9 8 8 7 8 8 8 9 9 8 7 8 8 7 9 10 9 9 8 7 6 5 4 3 0 -1 -1 -2 -2 -4 -4 -5 -5 -6 -7 -7 -6 -7 -8 -8 -7 -8 -7 -9
10 1 3 7 2 -1 -6 -11 -2 -2 -3 -5 -5 3 8 1 1 -0 3 5 4 3 3 3 3 4 3 4 9 12 13 13 12 11 15 13 11 10 9 8 7 8 8 8 8 8 9 9 9 8 7 5 5 6 6 7 8 7 5 4 3 3 3 2 1 -0 -1 -1 -2 -3 -3 -4 -5 -5 -6 -7 -7 -8 -8 -6 -8 -8 -7 -9 -6 -7
14 10 10 5 1 -1 -1 1 -0 -6 -9 -2 0 6 12 7 5 7 3 6 6 5 5 4 3 3 5 10 13 14 14 12 7 10 14 10 9 9 7 6 6 7 7 8 8 9 9 8 5 6 4 3 2 3 5 7 8 7 6 4 2 2 2 -1 -2 -3 -2 -3 -3 -3 -5 -5 -6 -7 -7 -8 -8 -8 -6 -8 -8 -8 -7 -7 -10 -8
11 12 9 6 2 0 -2 -4 -9 -11 -3 -4 -1 4 10 12 9 4 -0 2 10 4 3 3 3 5 8 12 14 14 12 8 8 13 12 9 8 8 6 6 6 7 7 7 9 8 6 4 4 4 3 1 2 4 6 6 7 6 4 4 3 1 -2 -5 -5 -5 -5 -5 -5 -5 -5 -6 -7 -7 -8 -8 -7 -9 -9 -9 -9 -8 -8 -8 -11 -10
10 5 6 7 3 3 -2 -2 0 -6 1 3 3 7 12 12 5 4 -2 -3 1 3 5 7 8 9 12 14 14 11 10 9 11 14 10 8 7 7 7 6 7 7 5 8 7 5 4 3 3 2 1 1 3 4 4 5 5 4 3 2 -0 -3 -5 -4 -5 -6 -7 -7 -7 -7 -7 -7 -7 -8 -9 -7 -10 -11 -9 -10 -10 -10 -10 -10 -12 -13
8 7 7 11 5 7 9 3 -2 5 8 10 10 12 12 9 3 -6 -4 3 6 7 9 11 11 14 15 15 14 10 12 15 15 11 8 7 7 7 7 8 7 5 6 6 4 5 3 2 1 1 0 1 3 3 3 2 1 0 0 -1 -3 -5 -4 -4 -6 -5 -6 -7 -8 -8 -8 -9 -10 -10 -11 -11 -12 -9 -11 -12 -9 -9 -12 -13 -15 -15
-1 -1 2 2 5 7 4 4 6 6 8 9 13 12 12 2 -3 -0 7 6 8 9 15 14 15 16 16 15 14 13 15 14 12 8 7 7 7 7 8 7 4 5 7 5 4 3 2 1 -1 -0 -0 -0 1 1 1 -0 -2 -3 -3 -5 -5 -5 -5 -5 -7 -8 -9 -9 -9 -9 -10 -11 -12 -11 -13 -13 -12 -14 -11 -13 -14 -14 -15 -17 -16 -17
2 3 1 2 5 4 4 0 2 -1 3 11 11 11 9 -0 8 7 7 9 12 13 16 15 16 16 15 12 13 13 12 10 8 7 7 7 8 8 7 4 4 6 3 1 -0 1 2 -0 -0 -1 -1 -1 -0 0 -0 -3 -4 -5 -5 -6 -5 -4 -5 -7 -8 -7 -8 -9 -9 -10 -11 -12 -12 -12 -13 -13 -14 -14 -15 -15 -16 -17 -15 -17 -18 -18
6 -3 -3 0 6 -2 0 1 1 8 8 10 4 7 7 5 9 11 10 9 15 16 16 16 17 16 14 12 11 11 10 9 8 7 7 8 8 7 5 4 6 3 2 -1 -1 1 1 -1 -0 -1 -1 -0 -2 -2 -2 -4 -5 -5 -6 -6 -5 -5 -6 -8 -8 -9 -9 -10 -11 -11 -12 -13 -14 -14 -15 -15 -15 -16 -16 -17 -17 -18 -18 -19 -19 -18
7 7 6 2 4 4 2 6 8 14 9 11 6 5 7 9 11 12 11 10 13 16 17 17 16 16 13 11 11 10 9 8 7 7 8 8 6 5 3 4 4 2 -1 -2 -1 2 -1 -1 -2 -2 -2 -2 -2 -3 -4 -5 -7 -6 -7 -6 -6 -7 -7 -8 -9 -10 -11 -12 -13 -13 -15 -15 -16 -16 -16 -16 -17 -16 -16 -17 -18 -17 -18 -19 -19 -19
12 7 8 2 8 7 8 8 10 8 7 7 10 12 9 11 12 12 13 15 16 17 17 15 15 14 12 11 10 10 9 8 7 8 7 6 5 3 4 5 2 -1 -2 -3 -2 -0 -2 -3 -4 -6 -5 -5 -5 -5 -5 -6 -7 -7 -6 -6 -7 -7 -8 -9 -11 -11 -11 -12 -14 -14 -16 -16 -15 -17 -19 -18 -18 -16 -16 -16 -16 -17 -17 -19 -19 -19
8 6 5 4 6 2 4 4 3 4 5 7 6 8 12 10 12 13 16 16 17 17 16 14 13 12 11 11 10 9 8 8 7 7 5 4 2 2 4 1 -1 -3 -4 -4 -3 -2 -3 -5 -5 -6 -6 -7 -7 -7 -7 -8 -8 -8 -8 -8 -7 -7 -9 -10 -11 -10 -11 -12 -12 -14 -17 -16 -16 -14 -16 -18 -18 -18 -17 -17 -17 -17 -16 -17 -18 -19
11 7 4 4 3 3 3 4 5 5 7 9 10 8 6 9 14 16 16 17 17 17 15 13 13 12 11 11 10 8 8 8 6 4 3 2 1 3 1 -2 -4 -4 -4 -4 -3 -4 -6 -6 -7 -7 -7 -7 -7 -7 -8 -9 -9 -9 -9 -9 -8 -10 -11 -11 -11 -11 -12 -12 -14 -15 -16 -16 -12 -13 -15 -16 -17 -17 -17 -18 -18 -18 -17 -18 -19 -21
11 9 8 6 4 5 6 7 8 8 9 9 10 8 10 12 15 16 17 17 16 14 13 12 12 11 11 10 9 9 7 7 5 4 3 1 -0 2 -1 -4 -6 -6 -4 -4 -5 -5 -6 -8 -8 -8 -9 -9 -8 -8 -9 -11 -10 -10 -10 -9 -11 -12 -13 -11 -11 -12 -14 -14 -16 -15 -15 -16 -17 -16 -17 -17 -17 -17 -17 -16 -16 -17 -16 -16 -15 -16
9 9 8 7 8 9 8 8 8 8 9 9 8 8 10 14 16 16 16 16 15 12 12 11 12 11 10 9 8 7 6 5 4 3 2 1 2 -2 -3 -4 -6 -5 -4 -4 -5 -7 -8 -9 -9 -10 -10 -9 -9 -10 -10 -11 -10 -11 -11 -12 -12 -14 -13 -12 -12 -15 -14 -15 -17 -17 -16 -17 -17 -19 -17 -18 -18 -17 -17 -13 -9 -9 -12 -12 -8 -7
10 11 10 9 5 8 10 10 9 9 9 9 9 11 12 16 16 16 17 16 13 12 11 11 11 11 10 8 6 5 5 4 3 4 1 2 -1 -3 -5 -6 -5 -4 -3 -3 -5 -7 -9 -9 -9 -10 -11 -10 -10 -10 -11 -11 -12 -12 -12 -11 -12 -16 -16 -16 -14 -14 -14 -15 -17 -15 -14 -16 -17 -17 -19 -19 -19 -19 -18 -18 -16 -0 3 -2 -3 -4